TimeMDT,TemperatureF,Dew PointF,Humidity,Sea Level PressureIn,VisibilityMPH,Wind Direction,Wind SpeedMPH,Gust SpeedMPH,PrecipitationIn,Events,Conditions,WindDirDegrees,DateUTC
12:15 AM,59.2,15.3,18,30.17,10.0,West,12.7,16.1,N/A,,Clear,270,2013-05-27 06:15:00
12:35 AM,57.7,15.4,19,30.17,10.0,West,9.2,-,N/A,,Clear,260,2013-05-27 06:35:00
12:55 AM,58.8,13.5,17,30.17,10.0,West,8.1,-,N/A,,Clear,280,2013-05-27 06:55:00
1:15 AM,61.0,11.3,14,30.15,10.0,West,8.1,-,N/A,,Clear,280,2013-05-27 07:15:00
1:35 AM,60.4,11.7,15,30.15,10.0,West,8.1,-,N/A,,Clear,270,2013-05-27 07:35:00
1:55 AM,57.6,14.0,18,30.15,10.0,West,9.2,-,N/A,,Clear,280,2013-05-27 07:55:00
2:15 AM,54.3,16.2,22,30.15,10.0,West,11.5,-,N/A,,Clear,280,2013-05-27 08:15:00
2:35 AM,53.1,16.2,23,30.14,10.0,West,9.2,-,N/A,,Clear,280,2013-05-27 08:35:00
2:55 AM,50.7,16.2,25,30.14,10.0,West,4.6,-,N/A,,Clear,260,2013-05-27 08:55:00
3:15 AM,52.9,13.6,21,30.14,10.0,West,9.2,-,N/A,,Clear,270,2013-05-27 09:15:00
3:35 AM,53.1,12.6,20,30.14,10.0,WSW,9.2,-,N/A,,Clear,250,2013-05-27 09:35:00
3:55 AM,54.7,11.3,18,30.14,10.0,West,8.1,-,N/A,,Clear,270,2013-05-27 09:55:00
4:15 AM,51.1,13.8,23,30.14,10.0,WSW,4.6,-,N/A,,Clear,240,2013-05-27 10:15:00
4:35 AM,50.5,12.9,22,30.14,10.0,WNW,5.8,-,N/A,,Clear,300,2013-05-27 10:35:00
4:55 AM,48.7,14.7,26,30.13,10.0,West,3.5,-,N/A,,Clear,280,2013-05-27 10:55:00
5:15 AM,46.4,14.9,28,30.14,10.0,Calm,Calm,-,N/A,,Clear,0,2013-05-27 11:15:00
5:35 AM,46.0,15.1,29,30.14,10.0,Calm,Calm,-,N/A,,Clear,0,2013-05-27 11:35:00
5:55 AM,46.9,14.9,28,30.14,10.0,Calm,Calm,-,N/A,,Clear,0,2013-05-27 11:55:00
6:15 AM,48.6,15.8,27,30.14,10.0,WNW,8.1,-,N/A,,Clear,300,2013-05-27 12:15:00
6:35 AM,50.2,15.8,26,30.14,10.0,NW,9.2,-,N/A,,Clear,320,2013-05-27 12:35:00
6:55 AM,50.9,17.4,27,30.15,10.0,NW,8.1,-,N/A,,Clear,310,2013-05-27 12:55:00
7:15 AM,51.6,18.9,28,30.15,10.0,NNW,8.1,-,N/A,,Clear,330,2013-05-27 13:15:00
7:35 AM,53.1,20.1,28,30.15,10.0,NNW,9.2,-,N/A,,Clear,340,2013-05-27 13:35:00
7:55 AM,54.5,18.5,24,30.15,10.0,Calm,Calm,-,N/A,,Clear,0,2013-05-27 13:55:00
8:15 AM,57.2,18.7,22,30.15,10.0,NNE,4.6,-,N/A,,Clear,30,2013-05-27 14:15:00
8:35 AM,58.6,20.7,23,30.14,10.0,Calm,Calm,-,N/A,,Clear,0,2013-05-27 14:35:00
8:55 AM,60.1,21.0,22,30.14,10.0,Calm,Calm,-,N/A,,Clear,0,2013-05-27 14:55:00
9:15 AM,63.7,21.9,20,30.13,10.0,NNE,8.1,-,N/A,,Clear,20,2013-05-27 15:15:00
9:35 AM,67.1,14.0,13,30.13,10.0,WSW,9.2,-,N/A,,Clear,240,2013-05-27 15:35:00
9:55 AM,69.6,14.0,12,30.12,10.0,SW,13.8,18.4,N/A,,Clear,230,2013-05-27 15:55:00
10:15 AM,71.4,14.0,11,30.11,10.0,WSW,15.0,21.9,N/A,,Clear,240,2013-05-27 16:15:00
10:35 AM,72.3,13.8,11,30.11,10.0,SW,13.8,20.7,N/A,,Clear,220,2013-05-27 16:35:00
10:55 AM,70.5,12.6,11,30.11,10.0,WSW,6.9,23.0,N/A,,Clear,240,2013-05-27 16:55:00
11:15 AM,71.6,12.0,10,30.11,10.0,West,18.4,24.2,N/A,,Clear,280,2013-05-27 17:15:00
11:35 AM,72.0,10.0,9,30.11,10.0,West,20.7,28.8,N/A,,Clear,270,2013-05-27 17:35:00
11:55 AM,72.3,9.9,9,30.10,10.0,SW,15.0,21.9,N/A,,Clear,230,2013-05-27 17:55:00
12:15 PM,74.1,10.9,9,30.09,10.0,West,16.1,20.7,N/A,,Clear,260,2013-05-27 18:15:00
12:35 PM,73.6,10.9,9,30.09,10.0,WNW,16.1,26.5,N/A,,Clear,300,2013-05-27 18:35:00
12:55 PM,73.9,11.3,9,30.07,10.0,West,13.8,23.0,N/A,,Clear,260,2013-05-27 18:55:00
1:15 PM,74.8,12.0,9,30.06,10.0,WNW,15.0,26.5,N/A,,Clear,290,2013-05-27 19:15:00
1:35 PM,75.2,12.9,9,30.05,10.0,WSW,12.7,23.0,N/A,,Clear,240,2013-05-27 19:35:00
1:55 PM,76.1,12.6,9,30.05,10.0,West,13.8,23.0,N/A,,Clear,280,2013-05-27 19:55:00
2:15 PM,76.6,12.4,9,30.04,10.0,WNW,18.4,29.9,N/A,,Clear,290,2013-05-27 20:15:00
2:35 PM,77.2,12.7,9,30.02,10.0,West,15.0,31.1,N/A,,Clear,280,2013-05-27 20:35:00
2:55 PM,77.0,13.1,9,30.02,10.0,West,17.3,27.6,N/A,,Clear,260,2013-05-27 20:55:00
3:15 PM,77.4,12.7,9,30.01,10.0,West,19.6,28.8,N/A,,Clear,260,2013-05-27 21:15:00
3:35 PM,78.1,13.1,9,30.00,10.0,West,12.7,23.0,N/A,,Clear,270,2013-05-27 21:35:00
3:55 PM,77.9,13.8,9,30.00,10.0,West,15.0,27.6,N/A,,Clear,270,2013-05-27 21:55:00
4:15 PM,77.0,16.2,10,30.00,10.0,WSW,12.7,23.0,N/A,,Clear,240,2013-05-27 22:15:00
4:35 PM,73.4,14.5,11,30.00,10.0,SSW,18.4,25.3,N/A,,Clear,210,2013-05-27 22:35:00
4:55 PM,75.4,15.3,10,29.99,10.0,SW,15.0,23.0,N/A,,Clear,220,2013-05-27 22:55:00
5:15 PM,76.5,14.4,10,29.99,10.0,WSW,12.7,20.7,N/A,,Clear,240,2013-05-27 23:15:00
5:35 PM,75.2,14.9,10,29.98,10.0,WSW,15.0,26.5,N/A,,Clear,240,2013-05-27 23:35:00
5:55 PM,75.2,13.5,10,29.99,10.0,West,11.5,20.7,N/A,,Clear,270,2013-05-27 23:55:00
6:15 PM,74.1,10.9,9,29.99,10.0,West,11.5,20.7,N/A,,Clear,270,2013-05-28 00:15:00
6:35 PM,72.5,10.6,9,29.99,10.0,WSW,5.8,-,N/A,,Clear,240,2013-05-28 00:35:00
6:55 PM,72.9,11.8,10,29.99,10.0,West,13.8,19.6,N/A,,Clear,260,2013-05-28 00:55:00
7:15 PM,72.0,11.8,10,29.99,10.0,West,12.7,19.6,N/A,,Clear,260,2013-05-28 01:15:00
7:35 PM,70.7,10.4,10,30.00,10.0,West,13.8,17.3,N/A,,Clear,260,2013-05-28 01:35:00
7:55 PM,68.4,12.9,12,30.00,10.0,West,6.9,-,N/A,,Clear,270,2013-05-28 01:55:00
8:15 PM,66.4,12.6,12,30.01,10.0,West,6.9,-,N/A,,Clear,270,2013-05-28 02:15:00
8:35 PM,64.6,12.7,13,30.02,10.0,West,10.4,-,N/A,,Clear,260,2013-05-28 02:35:00
8:55 PM,63.3,14.0,15,30.03,10.0,WSW,10.4,-,N/A,,Clear,250,2013-05-28 02:55:00
9:15 PM,61.3,14.9,16,30.04,10.0,WSW,10.4,-,N/A,,Clear,250,2013-05-28 03:15:00
9:35 PM,59.5,15.1,18,30.05,10.0,WSW,4.6,-,N/A,,Clear,250,2013-05-28 03:35:00
9:55 PM,60.4,14.5,17,30.06,10.0,West,12.7,-,N/A,,Clear,270,2013-05-28 03:55:00
10:15 PM,58.1,16.7,20,30.07,10.0,NW,9.2,-,N/A,,Clear,310,2013-05-28 04:15:00
10:35 PM,56.5,16.7,21,30.07,10.0,West,12.7,-,N/A,,Clear,260,2013-05-28 04:35:00
10:55 PM,55.2,18.3,24,30.07,10.0,WSW,11.5,-,N/A,,Clear,250,2013-05-28 04:55:00
11:15 PM,54.5,17.8,24,30.06,10.0,West,10.4,-,N/A,,Clear,260,2013-05-28 05:15:00
11:35 PM,52.7,17.6,25,30.06,10.0,WSW,9.2,-,N/A,,Clear,250,2013-05-28 05:35:00
11:55 PM,52.9,17.6,25,30.07,10.0,WNW,4.6,-,N/A,,Clear,290,2013-05-28 05:55:00